Le nostre stazioni meteo in Italia

Pubblicità
Il mio iltempo24.it
Capo Bellavista, Italia (16550): Temperatura & dewpoint: 27.06.2020 13:00:00 - 03.07.2020 13:00:00 (CEST)Capo Bellavista, Italia (16550): velocità del vento: 27.06.2020 13:00:00 - 03.07.2020 13:00:00 (CEST)Capo Bellavista, Italia (16550): direzione del vento: 27.06.2020 13:00:00 - 03.07.2020 13:00:00 (CEST)Capo Bellavista, Italia (16550): reduced air pressure: 27.06.2020 13:00:00 - 03.07.2020 13:00:00 (CEST)Capo Bellavista, Italia (16550): visibility: 27.06.2020 13:00:00 - 03.07.2020 13:00:00 (CEST)Capo Bellavista, Italia (16550): ore di luce: 27.06.2020 13:00:00 - 03.07.2020 13:00:00 (CEST)
Data & Tempo tt [°C] td [°C] ff [km/h] ff [kn] dd ppp [hPa] vv [km] sd [min]
03.07.2020 13:00:00 - - - - - - - -
03.07.2020 12:00:00 30,0 23,4 11 6 S 1010,9 30 60
03.07.2020 11:00:00 30,4 20,3 9 5 SE 1010,9 30 60
03.07.2020 10:00:00 29,6 20,5 16 9 E 1010,7 30 60
03.07.2020 09:00:00 28,4 20,2 5 3 S 1010,7 30 60
03.07.2020 08:00:00 24,6 19,9 8 4 O 1010,5 20 60
03.07.2020 07:00:00 23,4 18,9 11 6 NO 1010,3 20 18
03.07.2020 06:00:00 23,4 21,3 11 6 NO 1010,2 20 -
03.07.2020 05:00:00 23,0 19,8 11 6 ONO 1010,3 20 -
03.07.2020 04:00:00 23,0 20,9 13 7 ONO 1010,4 20 -
03.07.2020 03:00:00 23,4 22,7 9 5 O 1011,1 20 -
03.07.2020 02:00:00 23,8 23,5 8 4 NO 1011,1 14 -
03.07.2020 01:00:00 24,2 23,9 4 2 O 1011,0 14 -
03.07.2020 00:00:00 24,2 23,3 8 4 O 1010,9 16 -
02.07.2020 23:00:00 24,2 23,5 4 2 O 1010,8 16 -
02.07.2020 22:00:00 24,0 24,0 4 2 ENE 1010,4 16 -
02.07.2020 21:00:00 25,0 24,7 4 2 ESE 1010,3 16 24
02.07.2020 20:00:00 26,0 24,4 5 3 E 1010,2 16 60
02.07.2020 19:00:00 26,8 24,1 11 6 E 1010,1 16 60
02.07.2020 18:00:00 26,8 23,9 13 7 E 1010,1 16 60
02.07.2020 17:00:00 26,4 23,9 22 12 E 1010,3 16 60
02.07.2020 16:00:00 27,0 24,1 28 15 E 1010,3 16 60
02.07.2020 15:00:00 27,2 23,2 24 13 E 1010,1 16 60
02.07.2020 14:00:00 26,8 22,9 31 17 ENE 1010,0 16 60
02.07.2020 13:00:00 26,8 22,9 42 23 ENE 1010,1 16 60
02.07.2020 12:00:00 27,2 22,8 29 16 E 1009,9 20 60
02.07.2020 11:00:00 27,2 21,5 28 15 E 1009,2 20 60
02.07.2020 10:00:00 26,6 19,7 31 17 ENE 1010,1 20 60
02.07.2020 09:00:00 26,0 21,3 22 12 ENE 1009,3 30 60
02.07.2020 08:00:00 24,2 20,8 24 13 NE 1009,3 25 54
02.07.2020 07:00:00 23,0 21,6 22 12 NE 1009,2 25 6
02.07.2020 06:00:00 23,2 22,4 15 8 E 1009,2 20 -
02.07.2020 05:00:00 23,2 22,7 28 15 E 1009,2 30 -
02.07.2020 04:00:00 23,2 21,5 28 15 E 1009,2 30 -
02.07.2020 03:00:00 23,2 21,5 13 7 NNO 1009,2 30 -
02.07.2020 02:00:00 24,0 24,0 18 10 SO 1010,2 30 -
02.07.2020 01:00:00 24,6 24,6 16 9 SSO 1010,1 30 -
02.07.2020 00:00:00 25,0 25,0 21 11 SO 1010,2 30 -
01.07.2020 23:00:00 25,0 25,0 16 9 SSO 1010,2 30 -
01.07.2020 22:00:00 25,0 24,2 18 10 SSO 1010,2 30 -
01.07.2020 21:00:00 26,0 25,5 16 9 SSO 1010,1 30 24
01.07.2020 20:00:00 28,0 25,3 18 10 SSO 1010,3 30 60
01.07.2020 19:00:00 30,0 25,0 15 8 SSO 1010,6 30 60
01.07.2020 18:00:00 30,0 23,8 9 5 S 1010,8 30 60
01.07.2020 17:00:00 31,0 24,0 11 6 S 1011,1 30 60
01.07.2020 16:00:00 31,2 22,5 8 4 S 1011,8 30 60
01.07.2020 15:00:00 30,0 22,3 15 8 SE 1012,3 30 60
01.07.2020 14:00:00 29,6 22,2 16 9 ESE 1012,8 30 60
01.07.2020 13:00:00 29,0 23,0 21 11 E 1012,8 30 60
01.07.2020 12:00:00 29,0 23,0 18 10 E 1012,7 30 60
01.07.2020 11:00:00 27,4 22,8 21 11 E 1012,8 30 60
01.07.2020 10:00:00 27,6 23,0 18 10 NE 1012,3 30 60
01.07.2020 09:00:00 26,4 22,3 13 7 NE 1012,3 30 60
01.07.2020 08:00:00 24,6 20,7 15 8 NE 1012,2 30 60
01.07.2020 07:00:00 22,8 22,3 9 5 NNE 1012,3 30 0
01.07.2020 06:00:00 22,4 21,9 9 5 NE 1011,9 25 -
01.07.2020 05:00:00 22,8 22,3 8 4 NE 1011,8 20 -
01.07.2020 04:00:00 23,4 22,9 5 3 SE 1012,2 20 -
01.07.2020 03:00:00 23,6 23,0 8 4 NE 1012,3 20 -
01.07.2020 02:00:00 23,6 23,3 11 6 NNE 1012,4 20 -
01.07.2020 01:00:00 23,8 23,8 9 5 N 1012,4 20 -
01.07.2020 00:00:00 23,8 23,8 13 7 NE 1012,2 20 -
30.06.2020 23:00:00 23,8 23,8 9 5 NE 1012,2 20 -
30.06.2020 22:00:00 24,2 24,2 15 8 NE 1012,1 20 -
30.06.2020 21:00:00 25,0 24,7 15 8 ENE 1012,0 25 18
30.06.2020 20:00:00 26,4 25,6 16 9 E 1012,1 25 60
30.06.2020 19:00:00 27,2 25,6 16 9 E 1012,1 20 48
30.06.2020 18:00:00 29,0 25,0 15 8 ESE 1012,1 30 60
30.06.2020 17:00:00 30,8 24,1 9 5 SSE 1012,2 30 60
30.06.2020 16:00:00 30,8 24,1 13 7 SE 1012,7 30 60
30.06.2020 15:00:00 30,8 23,8 16 9 SE 1012,7 30 60
30.06.2020 14:00:00 30,6 23,0 15 8 ESE 1013,0 30 60
30.06.2020 13:00:00 30,8 22,3 18 10 E 1013,1 30 60
30.06.2020 12:00:00 32,0 20,6 13 7 E 1013,0 30 60
30.06.2020 11:00:00 31,4 17,5 15 8 ESE 1013,0 30 60
30.06.2020 10:00:00 29,0 20,6 13 7 ESE 1013,1 30 60
30.06.2020 09:00:00 27,0 20,3 8 4 O 1013,1 30 60
30.06.2020 08:00:00 27,0 20,6 8 4 E 1013,1 30 12
30.06.2020 07:00:00 25,2 18,9 11 6 ENE 1012,9 30 0
30.06.2020 06:00:00 24,0 18,2 11 6 NE 1012,3 30 -
30.06.2020 05:00:00 24,6 18,8 8 4 E 1012,5 30 -
30.06.2020 04:00:00 25,0 17,5 8 4 ENE 1012,9 30 -
30.06.2020 03:00:00 25,0 15,4 4 2 NO 1013,3 30 -
30.06.2020 02:00:00 24,0 16,8 11 6 NNE 1013,3 10 -
30.06.2020 01:00:00 25,0 18,0 8 4 N 1013,3 30 -
30.06.2020 00:00:00 24,0 23,3 4 2 NNO 1013,3 30 -
29.06.2020 23:00:00 25,0 22,3 4 2 NO 1013,1 30 -
29.06.2020 22:00:00 25,0 20,9 8 4 N 1012,6 30 -
29.06.2020 21:00:00 25,0 22,1 15 8 S 1012,3 30 24
29.06.2020 20:00:00 26,0 20,1 26 14 SO 1012,3 30 60
29.06.2020 19:00:00 27,6 20,4 29 16 SSO 1012,3 30 60
29.06.2020 18:00:00 26,8 17,9 29 16 SSO 1012,6 30 60
29.06.2020 17:00:00 28,0 24,0 29 16 SSO 1013,3 30 60
29.06.2020 16:00:00 29,0 25,0 26 14 SSO 1013,8 30 60
29.06.2020 15:00:00 29,8 24,4 22 12 SSO 1013,9 30 60
29.06.2020 14:00:00 30,0 24,4 11 6 S 1013,9 30 -
29.06.2020 13:00:00 33,0 22,8 8 4 NO 1013,6 30 60
29.06.2020 12:00:00 30,8 19,8 9 5 O 1014,1 30 60
29.06.2020 11:00:00 28,2 21,0 11 6 SSE 1014,3 30 60
29.06.2020 10:00:00 27,0 17,5 5 3 S 1014,3 30 60
29.06.2020 09:00:00 25,0 14,5 5 3 NE 1014,5 30 60
29.06.2020 08:00:00 23,0 13,6 5 3 N 1014,3 30 60
29.06.2020 07:00:00 22,0 11,2 9 5 NO 1014,4 30 36
29.06.2020 06:00:00 21,8 11,3 9 5 NO 1014,4 30 -
29.06.2020 05:00:00 21,8 16,7 9 5 O 1014,8 30 -
29.06.2020 04:00:00 21,8 18,3 11 6 O 1015,5 30 -
29.06.2020 03:00:00 21,8 18,3 11 6 O 1015,5 30 -
29.06.2020 02:00:00 22,0 19,4 9 5 OSO 1015,4 30 -
29.06.2020 01:00:00 22,8 21,4 13 7 SO 1015,4 30 -
29.06.2020 00:00:00 23,0 21,6 15 8 SSO 1015,4 30 -
28.06.2020 23:00:00 23,0 21,6 15 8 SO 1015,4 30 -
28.06.2020 22:00:00 23,4 20,3 16 9 SO 1015,4 30 -
28.06.2020 21:00:00 25,0 19,2 8 4 S 1015,5 30 24
28.06.2020 20:00:00 27,4 18,8 4 2 S 1015,4 30 60
28.06.2020 19:00:00 28,2 18,7 5 3 S 1015,3 30 60
28.06.2020 18:00:00 28,6 19,5 11 6 S 1015,7 30 60
28.06.2020 17:00:00 29,0 20,0 16 9 ESE 1015,9 30 60
28.06.2020 16:00:00 29,6 20,3 21 11 ESE 1015,8 30 60
28.06.2020 15:00:00 29,8 20,9 16 9 ESE 1015,8 30 60
28.06.2020 14:00:00 30,0 19,8 18 10 ESE 1015,8 30 60
28.06.2020 13:00:00 30,0 19,8 13 7 ESE 1015,8 30 60
28.06.2020 12:00:00 29,2 18,9 16 9 SE 1015,8 30 60
28.06.2020 11:00:00 28,0 20,4 15 8 E 1015,9 30 60
28.06.2020 10:00:00 27,0 19,9 13 7 E 1016,0 30 60
28.06.2020 09:00:00 24,0 18,2 11 6 ENE 1016,0 30 60
28.06.2020 08:00:00 21,0 18,6 8 4 NNO 1015,7 30 -
28.06.2020 07:00:00 19,8 19,0 15 8 NNO 1015,6 30 -
28.06.2020 06:00:00 21,0 21,0 11 6 NNO 1015,5 30 -
28.06.2020 05:00:00 21,0 21,0 11 6 E 1015,1 30 -
28.06.2020 04:00:00 20,0 20,0 13 7 E 1015,4 30 -
28.06.2020 03:00:00 20,0 19,7 15 8 NO 1015,4 30 -
28.06.2020 02:00:00 21,0 20,7 11 6 NO 1015,5 30 -
28.06.2020 01:00:00 21,2 20,2 8 4 SO 1015,5 30 -
28.06.2020 00:00:00 22,0 21,3 15 8 SO 1015,5 30 -
27.06.2020 23:00:00 22,8 20,9 11 6 SSO 1015,4 30 -
27.06.2020 22:00:00 23,6 22,4 13 7 SO 1014,8 30 -
27.06.2020 21:00:00 24,0 21,9 11 6 SSE 1014,7 30 12
27.06.2020 20:00:00 26,0 20,8 11 6 S 1014,6 30 48
27.06.2020 19:00:00 27,2 20,8 15 8 ONO 1014,8 30 48
27.06.2020 18:00:00 27,6 20,7 8 4 NNO 1014,8 30 48
27.06.2020 17:00:00 28,0 19,2 11 6 NO 1014,9 30 60
27.06.2020 16:00:00 31,0 19,7 15 8 SSE 1015,0 30 60
27.06.2020 15:00:00 31,4 19,1 11 6 SSE 1015,1 30 60
27.06.2020 14:00:00 32,0 18,6 11 6 N 1015,1 30 60
27.06.2020 13:00:00 32,2 18,8 8 4 E 1015,1 30 60

tt = Temperatura
td = dewpoint
ff = velocità del vento
dd = direzione del vento
ppp = reduced air pressure
vv = visibility
sd = ore di luce

Stazioni seguenti

WeatherPro
AMSI
MeteoEarth